GRUS-1D

Last updated on Thu Apr 22 2021 00:02:03 GMT+0000 (Coordinated Universal Time)

1 47936U 21022E 21111.56136725 .00001250 00000-0 12846-3 0 9999 2 47936 97.7291 15.0957 0020894 136.7869 223.5001 14.91983613 4514
UTC large
Height (km)
Speed (km/s)
/
Latitude / Longitude
Inclination (degrees)
Orbital Period (minutes)
Azimuth
Elevation
Range (km)
Doppler Factor

Next 0 passes for location: London (51.5072 / 0.1276)

Sorry there are no passes over London.